When you browse on this site, cookies collect data to enhance your experience and personalize the content and advertising you see.
Visit our Privacy Policy to learn more. By continuing to use the site, you agree to this use of cookies and data.
  • In United Kingdom
  • List of Countries
  • For 7 days
  • Water Temperature
  • Satellite Maps
  • Weather Map
  • Weather Widgets
  • user-avatar
    Login

    Hourly Weather Pylypenkove

    Today, 25 June, Tuesday

    Time Temperature Precipitation Wind Pressure Humidity
    00:00 +20°C° 0.1 mm 4 mps 743 mmHg 94%
    01:00 +20°C° 0.1 mm 4 mps 743 mmHg 95%
    02:00 +20°C° 0 mm 4 mps 743 mmHg 96%
    03:00 +19°C° 0 mm 4 mps 743 mmHg 96%
    04:00 +19°C° 0 mm 4 mps 743 mmHg 96%
    05:00 +19°C° 0 mm 4 mps 743 mmHg 96%
    06:00 +20°C° 0 mm 5 mps 744 mmHg 93%
    07:00 +21°C° 0 mm 5 mps 744 mmHg 90%
    08:00 +22°C° 0 mm 5 mps 745 mmHg 87%
    09:00 +23°C° 0 mm 5 mps 745 mmHg 82%
    10:00 +25°C° 0 mm 5 mps 745 mmHg 78%
    11:00 +26°C° 0 mm 5 mps 745 mmHg 73%
    12:00 +27°C° 0 mm 5 mps 745 mmHg 70%
    13:00 +27°C° 0 mm 5 mps 745 mmHg 68%
    14:00 +27°C° 0 mm 5 mps 745 mmHg 66%
    15:00 +27°C° 0 mm 5 mps 745 mmHg 67%
    16:00 +26°C° 0 mm 5 mps 745 mmHg 68%
    17:00 +26°C° 0 mm 5 mps 745 mmHg 69%
    18:00 +23°C° 0 mm 4 mps 745 mmHg 73%
    19:00 +22°C° 0 mm 3 mps 746 mmHg 77%
    20:00 +20°C° 0 mm 3 mps 746 mmHg 81%
    21:00 +19°C° 0 mm 3 mps 746 mmHg 84%
    22:00 +18°C° 0 mm 2 mps 746 mmHg 86%
    23:00 +18°C° 0 mm 2 mps 746 mmHg 89%

    Tomorrow, 26 June, Wednesday

    Time Temperature Precipitation Wind Pressure Humidity
    00:00 +17°C° 0 mm 2 mps 746 mmHg 89%
    01:00 +17°C° 0 mm 2 mps 746 mmHg 89%
    02:00 +16°C° 0 mm 2 mps 747 mmHg 89%
    03:00 +16°C° 0 mm 2 mps 746 mmHg 89%
    04:00 +16°C° 0 mm 2 mps 746 mmHg 89%
    05:00 +16°C° 0 mm 2 mps 746 mmHg 90%
    06:00 +18°C° 0 mm 2 mps 746 mmHg 84%
    07:00 +20°C° 0 mm 2 mps 747 mmHg 78%
    08:00 +21°C° 0 mm 2 mps 747 mmHg 71%
    09:00 +23°C° 0 mm 2 mps 747 mmHg 67%
    10:00 +24°C° 0 mm 2 mps 746 mmHg 63%
    11:00 +25°C° 0 mm 2 mps 746 mmHg 59%
    12:00 +26°C° 0 mm 2 mps 746 mmHg 57%
    13:00 +26°C° 0 mm 1 mps 746 mmHg 55%
    14:00 +27°C° 0 mm 1 mps 746 mmHg 54%
    15:00 +27°C° 0 mm 1 mps 745 mmHg 55%
    16:00 +27°C° 0 mm 1 mps 744 mmHg 56%
    17:00 +26°C° 0 mm 1 mps 744 mmHg 57%
    18:00 +25°C° 0 mm 1 mps 744 mmHg 62%
    19:00 +23°C° 0 mm 1 mps 743 mmHg 68%
    20:00 +22°C° 0 mm 1 mps 743 mmHg 73%
    21:00 +20°C° 0 mm 2 mps 743 mmHg 76%
    22:00 +19°C° 0 mm 2 mps 742 mmHg 78%
    23:00 +18°C° 0 mm 2 mps 742 mmHg 81%

    Day after tomorrow, 27 June, Thursday

    Time Temperature Precipitation Wind Pressure Humidity
    00:00 +17°C° 0 mm 2 mps 742 mmHg 82%
    01:00 +17°C° 0 mm 3 mps 741 mmHg 83%
    02:00 +17°C° 0 mm 3 mps 741 mmHg 85%
    03:00 +16°C° 0 mm 3 mps 740 mmHg 85%
    04:00 +16°C° 0 mm 3 mps 740 mmHg 86%
    05:00 +16°C° 0 mm 3 mps 739 mmHg 87%
    06:00 +18°C° 0 mm 4 mps 738 mmHg 82%
    07:00 +20°C° 0 mm 5 mps 738 mmHg 78%
    08:00 +22°C° 0 mm 5 mps 738 mmHg 73%
    09:00 +23°C° 0 mm 6 mps 737 mmHg 72%
    10:00 +26°C° 0 mm 6 mps 736 mmHg 71%
    11:00 +27°C° 0 mm 6 mps 735 mmHg 71%
    12:00 +26°C° 1.4 mm 6 mps 735 mmHg 75%
    13:00 +24°C° 1.4 mm 6 mps 734 mmHg 80%
    14:00 +25°C° 1.4 mm 5 mps 734 mmHg 85%
    15:00 +25°C° 0.5 mm 5 mps 734 mmHg 85%
    16:00 +23°C° 0.5 mm 5 mps 733 mmHg 85%
    17:00 +23°C° 0.5 mm 5 mps 733 mmHg 85%
    18:00 +22°C° 0 mm 5 mps 733 mmHg 86%
    19:00 +21°C° 0 mm 5 mps 733 mmHg 86%
    20:00 +20°C° 0 mm 5 mps 732 mmHg 87%
    21:00 +19°C° 0 mm 5 mps 733 mmHg 88%
    22:00 +17°C° 0 mm 5 mps 733 mmHg 88%
    23:00 +16°C° 0 mm 6 mps 733 mmHg 89%

    28 June, Friday

    Time Temperature Precipitation Wind Pressure Humidity
    00:00 +16°C° 0 mm 5 mps 733 mmHg 90%
    01:00 +15°C° 0 mm 5 mps 733 mmHg 91%
    02:00 +15°C° 0 mm 5 mps 733 mmHg 91%
    03:00 +14°C° 0 mm 5 mps 733 mmHg 91%
    04:00 +14°C° 0 mm 5 mps 733 mmHg 91%
    05:00 +13°C° 0 mm 5 mps 733 mmHg 91%
    06:00 +14°C° 0 mm 6 mps 733 mmHg 86%
    07:00 +15°C° 0 mm 7 mps 733 mmHg 81%
    08:00 +16°C° 0 mm 8 mps 733 mmHg 77%
    09:00 +16°C° 0 mm 8 mps 733 mmHg 72%
    10:00 +17°C° 0 mm 8 mps 733 mmHg 68%
    11:00 +17°C° 0 mm 8 mps 734 mmHg 63%
    12:00 +17°C° 0 mm 8 mps 734 mmHg 63%
    13:00 +18°C° 0 mm 9 mps 734 mmHg 63%
    14:00 +18°C° 0 mm 9 mps 734 mmHg 63%
    15:00 +18°C° 0 mm 9 mps 734 mmHg 64%
    16:00 +17°C° 0 mm 9 mps 734 mmHg 65%
    17:00 +17°C° 0 mm 8 mps 734 mmHg 65%
    18:00 +16°C° 0 mm 7 mps 734 mmHg 68%
    19:00 +15°C° 0 mm 6 mps 734 mmHg 71%
    20:00 +14°C° 0 mm 5 mps 734 mmHg 74%
    21:00 +13°C° 0 mm 5 mps 734 mmHg 75%
    22:00 +13°C° 0 mm 5 mps 735 mmHg 76%
    23:00 +12°C° 0 mm 5 mps 735 mmHg 77%

    29 June, Saturday

    Time Temperature Precipitation Wind Pressure Humidity
    00:00 +12°C° 0 mm 5 mps 735 mmHg 77%
    01:00 +10°C° 0 mm 5 mps 735 mmHg 77%
    02:00 +10°C° 0 mm 5 mps 735 mmHg 77%
    03:00 +10°C° 0 mm 5 mps 735 mmHg 78%
    04:00 +9°C° 0 mm 5 mps 735 mmHg 80%
    05:00 +9°C° 0 mm 6 mps 735 mmHg 82%
    06:00 +10°C° 0 mm 6 mps 735 mmHg 79%
    07:00 +11°C° 0 mm 6 mps 736 mmHg 76%
    08:00 +13°C° 0 mm 6 mps 736 mmHg 73%
    09:00 +14°C° 0.1 mm 7 mps 736 mmHg 68%
    10:00 +15°C° 0.1 mm 7 mps 736 mmHg 63%
    11:00 +16°C° 0.1 mm 7 mps 737 mmHg 58%
    12:00 +16°C° 0.1 mm 7 mps 737 mmHg 58%
    13:00 +17°C° 0.1 mm 7 mps 737 mmHg 59%
    14:00 +17°C° 0.1 mm 7 mps 737 mmHg 59%
    15:00 +16°C° 0.3 mm 7 mps 737 mmHg 62%
    16:00 +16°C° 0.3 mm 7 mps 737 mmHg 65%
    17:00 +16°C° 0.3 mm 7 mps 737 mmHg 68%
    18:00 +15°C° 0.1 mm 6 mps 737 mmHg 71%
    19:00 +13°C° 0.1 mm 5 mps 737 mmHg 74%
    20:00 +12°C° 0.1 mm 4 mps 737 mmHg 76%
    21:00 +12°C° 0 mm 4 mps 737 mmHg 78%
    22:00 +11°C° 0 mm 4 mps 737 mmHg 79%
    23:00 +11°C° 0 mm 4 mps 737 mmHg 80%

    30 June, Sunday

    Time Temperature Precipitation Wind Pressure Humidity
    00:00 +11°C° 0.4 mm 4 mps 737 mmHg 85%
    01:00 +11°C° 0.4 mm 4 mps 737 mmHg 89%
    02:00 +12°C° 0.4 mm 4 mps 737 mmHg 94%
    03:00 +12°C° 0.5 mm 5 mps 737 mmHg 94%
    04:00 +12°C° 0.5 mm 5 mps 737 mmHg 93%
    05:00 +11°C° 0.5 mm 6 mps 737 mmHg 92%
    06:00 +12°C° 0.1 mm 5 mps 737 mmHg 92%
    07:00 +12°C° 0.1 mm 5 mps 737 mmHg 92%
    08:00 +13°C° 0.1 mm 4 mps 737 mmHg 92%
    09:00 +14°C° 0.1 mm 4 mps 738 mmHg 87%
    10:00 +17°C° 0.1 mm 4 mps 738 mmHg 82%
    11:00 +18°C° 0.1 mm 4 mps 738 mmHg 77%
    12:00 +19°C° 0.2 mm 4 mps 738 mmHg 74%
    13:00 +20°C° 0.2 mm 4 mps 738 mmHg 70%
    14:00 +22°C° 0.2 mm 4 mps 738 mmHg 67%
    15:00 +21°C° 0.2 mm 4 mps 737 mmHg 69%
    16:00 +21°C° 0.2 mm 4 mps 737 mmHg 72%
    17:00 +21°C° 0.2 mm 4 mps 737 mmHg 74%
    18:00 +20°C° 0 mm 3 mps 737 mmHg 79%
    19:00 +19°C° 0 mm 3 mps 737 mmHg 83%
    20:00 +18°C° 0 mm 3 mps 737 mmHg 88%
    21:00 +17°C° 0 mm 2 mps 738 mmHg 89%
    22:00 +17°C° 0 mm 2 mps 738 mmHg 91%
    23:00 +16°C° 0 mm 2 mps 738 mmHg 92%
    Show more